Location: Geremba
(10.4250°N, 67.2394°W)
Time: 23:06:39
(UTC+00:00)

Cosmos 1777 Rocket - Pass Details

Date: 23 May 2024
Orbit: 756 x 773 km, 74.0° (Epoch: 25 June)

Event Time Altitude Azimuth Distance (km) Brightness Sun altitude
Exits shadow 07:57:27 54° 5° (N) 925 4.5 -29.4°
Drops below altitude 10° 08:01:28 10° 11° (N) 2,301 6.9 -28.5°
Sets 08:03:50 0° 12° (NNE) 3,230 7.8 -28.0°
